Weather History for Beaufort MCAS, SC

Change the Weather History Date:

Tuesday, November 20, 2012

  Actual Average Record
Temperature  
Mean Temperature 58 °F -  
Max Temperature 69 °F 69 °F 83 °F (1945)
Min Temperature 48 °F 51 °F 24 °F (1951)
Degree Days  
Heating Degree Days 6    
Growing Degree Days 8 (Base 50)    
Moisture  
Dew Point 47 °F    
Average Humidity 76    
Maximum Humidity 94    
Minimum Humidity 44    
Precipitation  
Precipitation 0.00 in - - ()
Sea Level Pressure  
Sea Level Pressure 30.09 in    
Wind  
Wind Speed 6 mph (North)    
Max Wind Speed 10 mph    
Max Gust Speed -    
Visibility 9 miles    
Events      
Averages and records for this station are not official NWS values.
T = Trace of Precipitation, MM = Missing Value Source: NWS Daily Summary

Daily Weather History Graph

Daily Weather History Graph

Search for Another Location

Airport:

Trip Planner

Search our weather history database for the weather conditions in past years. The results will help you decide how hot, cold, wet, or windy it might be!

Date:

Astronomy

Nov. 20, 2012 Rise Set
Actual Time 6:57 AM EST 5:19 PM EST
Civil Twilight 6:31 AM EST 5:45 PM EST
Nautical Twilight 6:01 AM EST 6:15 PM EST
Astronomical Twilight 5:31 AM EST 6:45 PM EST
Moon 12:42 PM EST (11/20) No Moon Set
Length of Visible Light 11h 14m
Length of Day
10h 22m
Waxing Crescent, 51% of the Moon is Illuminated
Nov 20
Waxing Crescent
Nov 28
Full
Dec 6
Last Quarter
Dec 13
New
Dec 20
First Quarter

Hourly Weather History & Observations

Time (EST) Temp. Dew Point Humidity Pressure Visibility Wind Dir Wind Speed Gust Speed Precip Events Conditions
12:56 AM 54.0 °F 50.0 °F 86% 30.12 in 10.0 mi North 8.1 mph - N/A   Clear
1:56 AM 53.1 °F 48.0 °F 83% 30.11 in 10.0 mi North 8.1 mph - N/A   Clear
2:56 AM 52.0 °F 46.9 °F 83% 30.10 in 10.0 mi North 8.1 mph - N/A   Clear
3:56 AM 51.1 °F 46.0 °F 83% 30.10 in 10.0 mi North 6.9 mph - N/A   Clear
4:56 AM 50.0 °F 45.0 °F 83% 30.10 in 10.0 mi NNE 6.9 mph - N/A   Clear
5:56 AM 48.9 °F 44.1 °F 83% 30.13 in 10.0 mi North 5.8 mph - N/A   Clear
6:56 AM 48.0 °F 44.1 °F 86% 30.14 in 10.0 mi North 6.9 mph - N/A   Clear
7:56 AM 48.9 °F 45.0 °F 86% 30.14 in 10.0 mi North 9.2 mph - N/A   Scattered Clouds
8:56 AM 51.1 °F 45.0 °F 80% 30.15 in 10.0 mi North 8.1 mph - N/A   Clear
9:56 AM 55.9 °F 46.9 °F 72% 30.15 in 10.0 mi Variable 6.9 mph - N/A   Clear
10:56 AM 59.0 °F 46.9 °F 64% 30.13 in 10.0 mi NNE 5.8 mph - N/A   Clear
11:56 AM 64.0 °F 48.0 °F 56% 30.11 in 10.0 mi NNE 6.9 mph - N/A   Clear
12:56 PM 66.0 °F 48.0 °F 52% 30.08 in 10.0 mi North 9.2 mph - N/A   Scattered Clouds
1:56 PM 69.1 °F 46.0 °F 44% 30.06 in 10.0 mi North 9.2 mph - N/A   Scattered Clouds
2:56 PM 68.0 °F 46.0 °F 45% 30.04 in 10.0 mi North 8.1 mph - N/A   Clear
3:56 PM 68.0 °F 46.9 °F 47% 30.04 in 10.0 mi North 10.4 mph - N/A   Clear
4:56 PM 64.0 °F 48.9 °F 58% 30.04 in 10.0 mi NNE 3.5 mph - N/A   Clear
5:56 PM 59.0 °F 50.0 °F 72% 30.06 in 10.0 mi Calm Calm - N/A   Clear
6:56 PM 55.9 °F 51.1 °F 84% 30.07 in 10.0 mi Calm Calm - N/A   Clear
7:56 PM 54.0 °F 50.0 °F 86% 30.08 in 10.0 mi Calm Calm - N/A   Clear
8:56 PM 52.0 °F 48.9 °F 89% 30.08 in 7.0 mi Calm Calm - N/A   Clear
9:33 PM 50.0 °F 48.2 °F 94% 30.08 in 1.8 mi North 3.5 mph - N/A   Clear
9:42 PM 50.0 °F 48.2 °F 94% 30.08 in 3.0 mi North 3.5 mph - N/A   Clear
9:56 PM 50.0 °F 48.0 °F 93% 30.09 in 8.0 mi Calm Calm - N/A   Clear
10:56 PM 48.9 °F 46.9 °F 93% 30.09 in 10.0 mi Calm Calm - N/A   Clear
11:56 PM 48.0 °F 45.0 °F 89% 30.08 in 10.0 mi NNW 3.5 mph - N/A   Clear